Regional Weather Roundup
Issued by NWS Boston, MA

Home | Current Version | Previous Version | Text Only | Print | Product List | Glossary On
Versions: 1 2 3 4 5 6 7 8 9 10 11 12 13 14 15 16 17 18 19 20 21 22 23 24 25 26 27 28 29 30 31 32 33 34 35 36 37 38 39 40 41 42 43 44 45 46 47 48 49 50
000
ASUS41 KBOX 290010
RWRBOX

REGIONAL WEATHER ROUNDUP
NATIONAL WEATHER SERVICE TAUNTON MA
700 PM EST WED JAN 28 2015

NOTE:  "FAIR" INDICATES FEW OR NO CLOUDS BELOW 12,000 FEET WITH NO
SIGNIFICANT WEATHER AND/OR OBSTRUCTIONS TO VISIBILITY.  THE FOLLOWING
OBSERVATION LOCATIONS DO NOT REPORT PRESENT WEATHER...PROVINCETOWN...
SMITHFIELD...BLOCK ISLAND...KEENE...AND OXFORD.

MAZALL-290100-
EASTERN MASSACHUSETTS

CITY           SKY/WX    TMP DP  RH WIND       PRES   REMARKS
BOSTON         PTCLDY    23   8  52 NW10      30.12R WCI  12
6HR MIN TEMP:  19; 6HR MAX TEMP:  24;

BEVERLY        CLEAR     20   6  55 NW8       30.11R WCI  10
LAWRENCE       CLEAR     21   4  47 NW5       30.13R WCI  15
BEDFORD        CLEAR     19   5  54 W3        30.11R
BLUE HILL        N/A     19   7  59 MISG      30.06R
NORWOOD        CLEAR     17   6  62 N3        30.12R
MARSHFIELD     CLEAR     21  12  68 NW6       30.13R WCI  14
PLYMOUTH       CLEAR     10   6  84 CALM      30.11R
TAUNTON        CLEAR     11   7  84 CALM      30.12R
NEW BEDFORD    CLEAR     14   8  77 CALM      30.12R
$$

MAZALL-290100-
CAPE COD AND THE ISLANDS

CITY           SKY/WX    TMP DP  RH WIND       PRES   REMARKS
FALMOUTH       MOCLDY    10   5  79 W3        30.11R
HYANNIS        CLOUDY    22  11  62 W7        30.09R WCI  13
CHATHAM        CLOUDY    25  15  66 NW6       30.09R WCI  18
PROVINCETOWN   CLOUDY    27  16  63 NW14G21   30.10R WCI  15
NANTUCKET      CLOUDY    25  16  68 NW12      30.09R WCI  14
MARTHAS VNYRD  CLEAR     13   4  67 NW3       30.11R
$$

MAZALL-290100-
CENTRAL AND WESTERN MASSACHUSETTS

CITY           SKY/WX    TMP DP  RH WIND       PRES   REMARKS
WORCESTER      CLEAR     19   3  49 NW16      30.06R WCI   4
6HR MIN TEMP:  18; 6HR MAX TEMP:  22;

FITCHBURG      CLEAR     22   1  40 NW10      30.11R WCI  11
ORANGE         CLEAR     17  -1  45 N7        30.14R WCI   8
SPRINGFIELD    CLEAR     19   2  49 NW7       30.16R WCI   9
WESTFIELD      CLEAR     22   2  42 NW12      30.16R WCI  10
NORTH ADAMS    CLEAR     14   3  61 W5        30.19R WCI   6
PITTSFIELD     CLEAR     14   1  56 NW7       30.13R WCI   4
$$

RIZALL-290100-
RHODE ISLAND

CITY           SKY/WX    TMP DP  RH WIND       PRES   REMARKS
PROVIDENCE     CLEAR     23   8  52 NW5       30.13R WCI  17
6HR MIN TEMP:  21; 6HR MAX TEMP:  26;

NEWPORT        CLEAR     23   9  55 NW7       30.12R WCI  15
BLOCK ISLAND   CLEAR     25   9  50 N12G17    30.11R WCI  14
SMITHFIELD     CLEAR     16   1  53 NW7       30.09R WCI   6
WESTERLY       CLEAR     20   8  60 CALM      30.14R
$$

CTZALL-290100-
CONNECTICUT

CITY           SKY/WX    TMP DP  RH WIND       PRES   REMARKS
BRADLEY INTL   PTCLDY    24   1  36 N12       30.16R WCI  13
6HR MIN TEMP:  23; 6HR MAX TEMP:  29;

HARTFORD       CLEAR     24   3  40 VRB7      30.18R WCI  16
BRIDGEPORT     CLEAR     25   4  40 NW8       30.18R WCI  16
DANBURY        CLEAR     23  -1  35 VRB5      30.18R WCI  17
GROTON         CLEAR     23   9  55 N7        30.13R WCI  15
NEW HAVEN      CLEAR     25   4  40 N15G21    30.16R WCI  13
CHESTER        FAIR      27   5  39 NW14G22   30.12R WCI  15
MERIDEN        CLEAR     24   4  42 NW9       30.17R WCI  14
WILLIMANTIC    CLEAR     23   8  52 NW6       30.14R WCI  16
OXFORD         CLEAR     19   0  42 N10       30.14  WCI   8
$$

MEZ002-015-021-024-NHZ003-005-008-011-012-014-VTZ005-008-290100-
NORTHERN NEW ENGLAND

CITY           SKY/WX    TMP DP  RH WIND       PRES   REMARKS
PORTLAND ME    CLEAR     22   7  52 NW8       30.10R WCI  12
6HR MIN TEMP:  22; 6HR MAX TEMP:  26;

BANGOR ME      CLEAR     16   7  67 NW7       30.04R WCI   6
CONCORD NH     CLEAR     19   1  45 NW10      30.12R WCI   7
MANCHESTER NH  PTCLDY    20   3  48 NW7       30.11R WCI  11
NASHUA NH        N/A     21   3  45 NW13G20   30.13R WCI   9
PORTSMOUTH NH  CLEAR     19   6  56 W7        30.10R WCI  10
JAFFREY NH     CLEAR     16   2  54 VRB6      30.09R WCI   7
KEENE NH       CLEAR     16   0  48 N5        30.15R WCI   9
BURLINGTON VT  CLEAR     11  -7  44 CALM      30.25R
MT. WASHINGTON PTCLDY     5 -11  47 N46G62      N/A  WCI -23
$$

NYZ052-076-290100-
EASTERN NEW YORK

CITY           SKY/WX    TMP DP  RH WIND       PRES   REMARKS
ALBANY         CLEAR     19  -1  41 N8        30.25R WCI   9
6HR MIN TEMP:  18; 6HR MAX TEMP:  23;

NEW YORK CITY  CLEAR     31  10  41 NW7       30.19R WCI  24
6HR MIN TEMP:  30; 6HR MAX TEMP:  34;

$$

ANZALL-290100-
MARINE OBSERVATIONS

STATION/POSITION TIME  TEMP    WIND        PRES    VSBY  WAVE
                       AIR SEA DIR/SP/G                  HT/PER
                 (UTC) (F)     (DEG/KT/KT) (MB)    (MI)  (FT/S)
BOSTON BUOY      2350   26 40  330/ 19/ 21 1019.3R         7/ 8
BUZZARDS BAY     2300          340/ 12/ 14 1019.7R
NANTUCKET SOUND  NOT AVBL
MASS BAY-STELLWA 2304   23 41  310/ 16/ 19   N/A    1 7/8  7/ 8
ISLE OF SHOALS   0000   23     310/ 16/ 18 1018.8R
S OF BLOCK IS    2308      43                N/A           3/11
$$

......................KEY.........................
  SKY/WX - SKY CONDITION/PRESENT WEATHER
  TMP    - TEMPERATURE IN FAHRENHEIT
  DWPT   - DEWPOINT IN FAHRENHEIT
  RH     - RELATIVE HUMIDITY IN PERCENT
  WIND   - DIRECTION AND SPEED IN MPH
  PRES   - MEAN SEA LEVEL PRESSURE IN INCHES OF HG
  WCI    - WIND CHILL INDEX
  VSB    - VISIBILITY IN MILES
  HX     - HEAT INDEX
  TC     - TEMPERATURE IN CELSIUS
  VRB    - VARIABLE WIND DIRECTION
  N/A    - NOT AVAILABLE



USA.gov is the U.S. government's official web portal to all federal, state and local government web resources and services.